Cheatham Observed Data For Previous 48 Hours

Caption
Day and Hour Reservoir Elevation (behind dam)* Tailwater Elevation (below dam)* Average Hourly Discharge*
3/18/2019 1 AM CDT 385.41 376.28 78,000
3/18/2019 2 AM CDT 385.43 376.30 78,000
3/18/2019 3 AM CDT 385.45 376.28 78,000
3/18/2019 4 AM CDT 385.46 376.26 78,000
3/18/2019 5 AM CDT 385.46 376.25 80,000
3/18/2019 6 AM CDT 385.45 376.26 80,000
3/18/2019 7 AM CDT 385.42 376.27 80,000
3/18/2019 8 AM CDT 385.38 376.23 80,000
3/18/2019 9 AM CDT 385.33 376.23 80,000
3/18/2019 10 AM CDT 385.31 376.19 80,000
3/18/2019 11 AM CDT 385.23 376.18 80,000
3/18/2019 12 PM CDT 385.22 376.18 80,000
3/18/2019 1 PM CDT 385.23 376.22 80,000
3/18/2019 2 PM CDT 385.22 376.18 80,000
3/18/2019 3 PM CDT 385.20 376.15 80,000
3/18/2019 4 PM CDT 385.20 376.13 80,000
3/18/2019 5 PM CDT 385.19 376.13 80,000
3/18/2019 6 PM CDT 385.18 376.12 80,000
3/18/2019 7 PM CDT 385.20 376.12 80,000
3/18/2019 8 PM CDT 385.22 376.13 80,000
3/18/2019 9 PM CDT 385.23 376.14 80,000
3/18/2019 10 PM CDT 385.24 376.14 80,000
3/18/2019 11 PM CDT 385.25 376.15 80,000
3/19/2019 12 AM CDT 385.26 376.16 80,000
3/19/2019 1 AM CDT 385.28 376.14 80,000
3/19/2019 2 AM CDT 385.28 376.14 80,000
3/19/2019 3 AM CDT 385.29 376.16 80,000
3/19/2019 4 AM CDT 385.29 376.14 80,000
3/19/2019 5 AM CDT 385.27 376.12 80,000
3/19/2019 6 AM CDT 385.26 376.11 80,000
3/19/2019 7 AM CDT 385.20 376.07 80,000
3/19/2019 8 AM CDT 385.12 376.03 80,000
3/19/2019 9 AM CDT 385.10 376.05 80,000
3/19/2019 10 AM CDT 385.06 376.01 78,000
3/19/2019 11 AM CDT 385.02 376.00 77,000
3/19/2019 12 PM CDT 385.02 376.01 77,000
3/19/2019 1 PM CDT 385.00 376.00 77,000
3/19/2019 2 PM CDT 384.96 376.00 77,000
3/19/2019 3 PM CDT 384.94 375.99 77,000
3/19/2019 4 PM CDT 384.88 375.98 77,000
3/19/2019 5 PM CDT 384.85 375.95 77,000
3/19/2019 6 PM CDT 384.83 375.90 77,000
3/19/2019 7 PM CDT 384.78 375.89 77,000
3/19/2019 8 PM CDT 384.74 375.89 77,000
3/19/2019 9 PM CDT 384.70 375.84 77,000
3/19/2019 10 PM CDT 384.65 375.84 77,000
3/19/2019 11 PM CDT 384.61 375.83 77,000
3/20/2019 12 AM CDT 384.57 375.80 77,000
3/20/2019 1 AM CDT 384.52 375.78 77,000
3/20/2019 2 AM CDT 384.47 375.76 77,000
3/20/2019 3 AM CDT 384.43 375.75 77,000
3/20/2019 4 AM CDT 384.37 375.69 77,000
3/20/2019 5 AM CDT 384.30 375.66 77,000
3/20/2019 6 AM CDT 384.23 375.70 77,000
3/20/2019 7 AM CDT 384.19 375.60 75,000
3/20/2019 8 AM CDT 384.10 375.50 74,000

Elevations are in feet above sea level. Discharges are in cubic feet per second and are reported at the end of the hour.